This demonstration page uses our WeatherBlox Daily Observations layout. Learn more.

39.92423, -83.80882

Hourly Observations for April 22, 2017

Temp ( °F °C ) Dew Point ( °F °C ) Humidity (%) Winds ( mph kmh ) Pressure ( in mb ) Visibility ( mi km ) Precip ( " mm )
12:56 am 00:56 Cloudy with Light Rain 48 8.9 39 3.9 71 71 NNE 10 17 30.06 1018 10 16.0934 0 0.0254
1:56 am 01:56 Cloudy with Rain 46 7.8 40 4.4 79 79 NE 14 22 30.03 1017 10 16.0934 0.02 0.508
2:56 am 02:56 Cloudy with Light Rain 45 7.2 40 4.4 83 83 NE 13 20 30 1016 10 16.0934 0.02 0.508
3:56 am 03:56 Cloudy 45 7.2 40 4.4 83 83 NE 16 26 30.02 1017 10 16.0934 0 0.0254
4:56 am 04:56 Clear 44 6.7 39 3.9 83 83 NE 14 22 30.01 1016 10 16.0934 0 0
5:56 am 05:56 Clear 43 6.1 37 2.8 80 80 NE 9 15 30.05 1018 10 16.0934 0 0
6:56 am 06:56 Sunny 43 6.1 37 2.8 80 80 NE 12 19 30.06 1018 10 16.0934 0 0
7:56 am 07:56 Sunny 44 6.7 37 2.8 76 76 NE 16 26 30.08 1019 10 16.0934 0 0
8:56 am 08:56 Sunny 45 7.2 37 2.8 74 74 NE 14 22 30.07 1018 10 16.0934 0 0
9:56 am 09:56 Sunny 45 7.2 36 2.2 71 71 ENE 17 28 30.07 1018 10 16.0934 0 0
10:19 am 10:19 Mostly Cloudy 46 8 37 3 71 71 ENE 15 24 30.09 1019 10 16.0934 0 0
10:56 am 10:56 Mostly Cloudy 46 7.8 38 3.3 73 73 NE 15 24 30.09 1019 10 16.0934 0 0
11:11 am 11:11 Partly Cloudy 46 8 37 3 71 71 NE 16 26 30.12 1020 10 16.0934 0 0
11:56 am 11:56 Mostly Sunny 48 8.9 37 2.8 66 66 NNE 17 28 30.11 1020 10 16.0934 0 0
12:56 pm 12:56 Mostly Sunny 50 10 38 3.3 63 63 NNE 16 26 30.11 1020 10 16.0934 0 0
1:56 pm 13:56 Mostly Sunny 51 10.6 37 2.8 59 59 NE 14 22 30.11 1020 10 16.0934 0 0
2:56 pm 14:56 Partly Cloudy 52 11.1 36 2.2 55 55 NE 17 28 30.07 1018 10 16.0934 0 0
3:56 pm 15:56 Partly Cloudy 53 11.7 36 2.2 52 52 NE 18 30 30.06 1018 10 16.0934 0 0
4:56 pm 16:56 Sunny 52 11.1 35 1.7 53 53 NE 20 31 30.04 1017 10 16.0934 0 0
5:56 pm 17:56 Sunny 53 11.7 33 0.6 47 47 NNE 16 26 30.06 1018 10 16.0934 0 0
6:56 pm 18:56 Sunny 51 10.6 33 0.6 50 50 NE 16 26 30.06 1018 10 16.0934 0 0
7:56 pm 19:56 Sunny 49 9.4 34 1.1 56 56 NNE 16 26 30.07 1018 10 16.0934 0 0
8:56 pm 20:56 Clear 47 8.3 34 1.1 61 61 NE 15 24 30.09 1019 10 16.0934 0 0
9:56 pm 21:56 Clear 45 7.2 35 1.7 68 68 NE 15 24 30.1 1019 10 16.0934 0 0
10:56 pm 22:56 Clear 44 6.7 34 1.1 68 68 NE 12 19 30.11 1020 10 16.0934 0 0
11:56 pm 23:56 Clear 42 5.6 34 1.1 73 73 ENE 9 15 30.11 1020 10 16.0934 0 0

Powered by AerisWeather